GW1230 Weather Reports


time (UTC)temp
F
wind
direction
speed
knots
gust
knots
rain 1hr
in
rain 24hr
in
rain mn
in
humidity
%
barometer
mb
20260505235052 64 181 5.2 6.1 0.00 0.00 0.00 73 1015.5
20260505234549 63 210 2.6 4.3 0.00 0.00 0.00 73 1015.3
20260505234045 63 182 4.3 6.1 0.00 0.00 0.00 74 1015.4
20260505233543 63 223 4.3 5.2 0.00 0.00 0.00 74 1015.4
20260505233040 63 215 5.2 7.0 0.00 0.00 0.00 74 1015.5
20260505232538 63 182 3.5 6.1 0.00 0.00 0.00 74 1015.5
20260505232035 64 260 1.7 1.7 0.00 0.00 0.00 73 1015.8
20260505231532 62 194 7.0 7.8 0.00 0.00 0.00 74 1015.6
20260505231031 62 196 5.2 7.8 0.00 0.00 0.00 76 1015.6
20260505230528 61 138 3.5 4.3 0.00 0.00 0.00 77 1015.5
20260505230024 63 156 6.1 7.8 0.00 0.00 0.00 74 1015.6
20260505225521 63 210 3.5 7.0 0.00 0.00 0.00 74 1015.9
20260505225017 62 219 0.9 1.7 0.00 0.00 0.00 76 1015.7
20260505224514 63 198 7.0 11.3 0.00 0.00 0.00 75 1015.9
20260505224011 62 210 1.7 1.7 0.00 0.00 0.00 76 1015.7
20260505223508 62 191 7.8 8.7 0.00 0.00 0.00 76 1015.6
20260505223004 62 184 2.6 6.1 0.00 0.00 0.00 76 1015.9
20260505222501 62 193 9.6 11.3 0.00 0.00 0.00 76 1015.9
20260505221956 61 226 6.1 7.8 0.00 0.00 0.00 78 1016.1
20260505221454 61 221 6.1 7.8 0.00 0.00 0.00 77 1016.1
20260505220951 60 200 2.6 4.3 0.00 0.00 0.00 79 1016.1
20260505220448 60 147 1.7 1.7 0.00 0.00 0.00 78 1016.2
20260505215945 60 241 1.7 1.7 0.00 0.00 0.00 78 1016.3
20260505215444 60 178 4.3 6.1 0.00 0.00 0.00 78 1016.2
20260505214941 60 225 2.6 4.3 0.00 0.00 0.00 78 1016.5
20260505214439 60 219 5.2 6.1 0.00 0.00 0.00 79 1016.2
20260505213936 60 245 3.5 4.3 0.00 0.00 0.00 79 1016.3
20260505213433 60 180 4.3 5.2 0.00 0.00 0.00 80 1016.3
20260505212929 59 161 2.6 2.6 0.00 0.00 0.00 79 1016.2
20260505212426 60 209 2.6 2.6 0.00 0.00 0.00 79 1016.5
20260505211923 60 165 2.6 2.6 0.00 0.00 0.00 80 1016.5
20260505211420 60 176 6.1 7.0 0.00 0.00 0.00 78 1016.2
20260505210917 60 193 4.3 5.2 0.00 0.00 0.00 78 1016.3
20260505210414 59 186 1.7 1.7 0.00 0.00 0.00 80 1016.3
20260505205911 60 212 2.6 2.6 0.00 0.00 0.00 79 1016.3
20260505205409 59 216 3.5 4.3 0.00 0.00 0.00 79 1016.4
20260505204906 59 173 4.3 5.2 0.00 0.00 0.00 80 1016.2
20260505204403 59 174 0.9 1.7 0.00 0.00 0.00 80 1016.3
20260505203900 60 186 7.8 9.6 0.00 0.00 0.00 79 1016.6
20260505203357 59 222 0.9 1.7 0.00 0.00 0.00 80 1016.6
20260505202853 58 201 7.0 8.7 0.00 0.00 0.00 81 1016.6
20260505202349 58 201 6.1 7.0 0.00 0.00 0.00 81 1016.5
20260505201846 58 186 6.1 7.0 0.00 0.00 0.00 81 1016.6
20260505201343 58 198 5.2 6.1 0.00 0.00 0.00 82 1016.4
20260505200842 58 264 0.9 1.7 0.00 0.00 0.00 82 1016.5
20260505200338 59 273 0.9 0.9 0.00 0.00 0.00 82 1016.5
20260505195834 58 222 2.6 2.6 0.00 0.00 0.00 82 1016.4
20260505195331 58 269 2.6 4.3 0.00 0.00 0.00 82 1016.5
20260505194828 59 216 2.6 4.3 0.00 0.00 0.00 82 1016.4
20260505194325 58 207 2.6 2.6 0.00 0.00 0.00 82 1016.4
20260505193820 58 160 4.3 6.1 0.00 0.00 0.00 83 1016.7
20260505193319 58 243 5.2 6.1 0.00 0.00 0.00 82 1016.5
20260505192816 58 229 5.2 6.1 0.00 0.00 0.00 82 1016.5
20260505192315 58 207 3.5 4.3 0.00 0.00 0.00 83 1016.4
20260505191812 58 217 2.6 4.3 0.00 0.00 0.00 83 1016.5
20260505191310 58 188 3.5 4.3 0.00 0.00 0.00 83 1016.5
20260505190807 57 251 3.5 4.3 0.00 0.00 0.00 83 1016.4
20260505190302 58 264 4.3 5.2 0.00 0.00 0.00 83 1016.4
20260505185758 58 184 4.3 6.1 0.00 0.00 0.00 83 1016.2
20260505185254 57 185 4.3 5.2 0.00 0.00 0.00 84 1016.3
20260505184750 58 192 2.6 4.3 0.00 0.00 0.00 83 1016.3
20260505184248 57 219 1.7 2.6 0.00 0.00 0.00 83 1016.4
20260505183745 57 238 0.9 1.7 0.00 0.00 0.00 84 1016.4
20260505183242 57 186 4.3 6.1 0.00 0.00 0.00 84 1016.3
20260505182738 57 197 4.3 5.2 0.00 0.00 0.00 84 1016.3
20260505182235 57 210 2.6 4.3 0.00 0.00 0.00 84 1016.3
20260505181732 57 179 5.2 6.1 0.00 0.00 0.00 84 1016.6
20260505181229 57 264 1.7 1.7 0.00 0.00 0.00 84 1016.4
20260505180726 57 186 4.3 5.2 0.00 0.00 0.00 84 1016.4
20260505180222 57 209 1.7 1.7 0.00 0.00 0.00 84 1016.4
20260505175719 57 198 1.7 1.7 0.00 0.00 0.00 85 1016.2
20260505175215 56 190 2.6 2.6 0.00 0.00 0.00 85 1016.1
20260505174712 56 201 7.8 9.6 0.00 0.00 0.00 85 1016.3
20260505174209 56 185 4.3 4.3 0.00 0.00 0.00 86 1016.3
20260505173705 56 201 7.8 8.7 0.00 0.00 0.00 85 1016.4
20260505173202 56 208 2.6 5.2 0.00 0.00 0.00 85 1016.5
20260505172659 56 199 1.7 1.7 0.00 0.00 0.00 86 1016.3
20260505172156 56 256 4.3 6.1 0.00 0.00 0.00 85 1016.4
20260505171655 56 176 2.6 2.6 0.00 0.00 0.00 86 1016.1
20260505171152 56 186 6.1 7.8 0.00 0.00 0.00 85 1016.2
20260505170649 56 257 0.9 1.7 0.00 0.00 0.00 86 1016.2
20260505170146 56 198 4.3 5.2 0.00 0.00 0.00 86 1016.2
20260505165646 56 248 0.9 1.7 0.00 0.00 0.00 86 1016.1
20260505165143 56 217 4.3 5.2 0.00 0.00 0.00 86 1016.2
20260505164638 56 204 1.7 1.7 0.00 0.00 0.00 85 1015.9
20260505164136 56 215 4.3 6.1 0.00 0.00 0.00 85 1015.9
20260505163634 56 221 3.5 5.2 0.00 0.00 0.00 86 1016.0
20260505163132 56 206 4.3 6.1 0.00 0.00 0.00 86 1016.1
20260505162629 56 185 5.2 7.0 0.00 0.00 0.00 85 1015.9
20260505162126 56 276 4.3 5.2 0.00 0.00 0.00 85 1015.9
20260505161623 56 269 2.6 4.3 0.00 0.00 0.00 85 1015.9
20260505161120 56 216 4.3 5.2 0.00 0.00 0.00 86 1015.9
20260505160618 56 199 5.2 7.0 0.00 0.00 0.00 86 1015.9
20260505160115 56 178 1.7 2.6 0.00 0.00 0.00 86 1015.8
20260505153055 55 228 2.6 4.3 0.00 0.00 0.00 87 1015.8
20260505152551 55 195 1.7 2.6 0.00 0.00 0.00 88 1015.7
20260505152047 55 194 5.2 7.0 0.00 0.00 0.00 88 1015.6
20260505151542 55 174 0.9 1.7 0.00 0.00 0.00 88 1015.5
20260505151040 55 169 5.2 6.1 0.00 0.00 0.00 88 1015.4
20260505150536 55 224 3.5 4.3 0.00 0.00 0.00 88 1015.5
20260505140502 55 175 6.1 7.0 0.00 0.00 0.00 87 1014.9
20260505124915 55 191 4.3 6.1 0.00 0.00 0.00 88 1014.2
20260505124412 55 196 2.6 2.6 0.00 0.00 0.00 89 1014.2
20260505123908 54 212 7.0 7.8 0.00 0.00 0.00 89 1014.2
20260505123405 54 154 6.1 7.8 0.00 0.00 0.00 89 1014.1
20260505122900 55 194 5.2 6.1 0.00 0.00 0.00 89 1013.9
20260505122358 54 162 7.8 8.7 0.00 0.00 0.00 89 1014.0
20260505121855 54 190 7.0 7.8 0.00 0.00 0.00 89 1014.0
20260505121352 54 177 11.3 14.8 0.00 0.00 0.00 89 1014.1
20260505120847 54 167 4.3 6.1 0.00 0.00 0.00 89 1014.0
20260505120344 54 203 9.6 12.2 0.00 0.00 0.00 89 1014.0
20260505115843 54 172 6.1 8.7 0.00 0.00 0.00 89 1014.1
20260505115340 54 175 3.5 4.3 0.00 0.00 0.00 90 1013.9
20260505114838 54 198 7.8 9.6 0.00 0.00 0.00 90 1013.9
20260505114334 54 181 6.1 7.0 0.00 0.00 0.00 89 1013.9
20260505113830 54 189 6.1 7.8 0.00 0.00 0.00 89 1013.7
20260505113327 54 212 3.5 7.8 0.00 0.00 0.00 90 1013.7
20260505112823 54 175 4.3 6.1 0.00 0.00 0.00 90 1014.0
20260505112321 54 177 8.7 11.3 0.00 0.00 0.00 90 1013.5
20260505111816 54 162 4.3 5.2 0.00 0.00 0.00 90 1013.7
20260505111311 54 212 4.3 5.2 0.00 0.00 0.00 90 1013.7
20260505110808 54 238 1.7 1.7 0.00 0.00 0.00 91 1013.7
20260505110305 54 205 6.1 7.0 0.00 0.00 0.00 90 1013.6
20260505101740 54 202 7.0 7.8 0.00 0.00 0.00 91 1013.2
20260505101235 54 248 1.7 4.3 0.00 0.00 0.00 91 1013.2
20260505100732 54 219 2.6 2.6 0.00 0.00 0.00 91 1013.0
20260505100229 54 190 7.8 8.7 0.00 0.00 0.00 91 1013.1
20260505095724 54 189 3.5 4.3 0.00 0.00 0.00 91 1013.1
20260505095222 54 188 6.1 7.0 0.00 0.00 0.00 91 1013.2
20260505094717 54 181 5.2 6.1 0.00 0.00 0.00 91 1013.2
20260505094214 54 247 2.6 4.3 0.00 0.00 0.00 91 1013.0
20260505093710 54 208 7.8 8.7 0.00 0.00 0.00 91 1012.9
20260505093208 54 200 3.5 5.2 0.00 0.00 0.00 91 1012.9
20260505092704 54 231 0.9 2.6 0.00 0.00 0.00 91 1012.7
20260505092204 54 243 5.2 7.0 0.00 0.00 0.00 90 1012.6
20260505091700 54 180 0.9 1.7 0.00 0.00 0.00 90 1012.8
20260505091158 54 202 3.5 6.1 0.00 0.00 0.00 90 1012.7
20260505090655 54 191 7.8 7.8 0.00 0.00 0.00 90 1012.6
20260505090154 54 186 2.6 2.6 0.00 0.00 0.00 90 1012.8
20260505085650 54 206 4.3 5.2 0.00 0.00 0.00 90 1012.7
20260505085149 55 194 3.5 4.3 0.00 0.00 0.00 90 1012.6
20260505084646 55 197 6.1 6.1 0.00 0.00 0.00 90 1012.8
20260505084144 55 207 7.0 7.8 0.00 0.00 0.00 90 1012.7
20260505083642 55 203 4.3 5.2 0.00 0.00 0.00 90 1012.4
20260505083138 55 219 0.9 1.7 0.00 0.00 0.00 90 1012.6
20260505082634 55 255 2.6 5.2 0.00 0.00 0.00 89 1012.4
20260505082131 55 202 5.2 6.1 0.00 0.00 0.00 89 1012.4
20260505081627 55 173 4.3 5.2 0.00 0.00 0.00 89 1012.5
20260505081125 55 199 3.5 4.3 0.00 0.00 0.00 89 1012.5
20260505080621 55 203 6.1 8.7 0.00 0.00 0.00 89 1012.4
20260505080117 55 201 4.3 5.2 0.00 0.00 0.00 89 1012.5
20260505075614 55 167 7.0 8.7 0.00 0.00 0.00 88 1012.4
20260505075110 55 208 1.7 2.6 0.00 0.00 0.00 88 1012.3
20260505074607 55 212 3.5 4.3 0.00 0.00 0.00 88 1012.5
20260505074104 56 171 6.1 8.7 0.00 0.00 0.00 88 1012.2
20260505073602 56 208 3.5 6.1 0.00 0.00 0.00 88 1012.1
20260505073100 56 199 2.6 2.6 0.00 0.00 0.00 88 1012.1
20260505072555 56 179 3.5 4.3 0.00 0.00 0.00 87 1012.1
20260505072052 56 244 1.7 2.6 0.00 0.00 0.00 87 1012.2
20260505071548 56 207 6.1 8.7 0.00 0.00 0.00 87 1012.1
20260505071046 56 199 5.2 6.1 0.00 0.00 0.00 87 1011.8
20260505070543 56 245 4.3 6.1 0.00 0.00 0.00 87 1011.7
20260505070039 56 239 1.7 1.7 0.00 0.00 0.00 86 1011.7
20260505065535 56 180 6.1 7.8 0.00 0.00 0.00 86 1011.5
20260505065032 57 203 7.0 7.8 0.00 0.00 0.00 86 1011.7
20260505064528 57 200 5.2 6.1 0.00 0.00 0.00 85 1011.8
20260505064027 57 197 7.0 8.7 0.00 0.00 0.00 85 1011.8
20260505063524 57 177 2.6 2.6 0.00 0.00 0.00 85 1011.5
20260505063020 57 203 2.6 4.3 0.00 0.00 0.00 85 1011.7
20260505062517 57 179 4.3 5.2 0.00 0.00 0.00 84 1011.7
20260505062014 58 173 4.3 5.2 0.00 0.00 0.00 84 1011.5
20260505061511 58 200 4.3 5.2 0.00 0.00 0.00 84 1011.4
20260505061009 58 211 0.0 0.0 0.00 0.00 0.00 83 1011.1
20260505060506 58 226 4.3 6.1 0.00 0.00 0.00 82 1011.3
20260505060002 59 194 7.8 7.8 0.00 0.00 0.00 82 1010.9
20260505055458 59 201 7.0 7.8 0.00 0.00 0.00 82 1011.3
20260505054955 59 173 6.1 7.8 0.00 0.00 0.00 81 1011.2
20260505054453 59 193 3.5 5.2 0.00 0.00 0.00 81 1011.4
20260505053950 60 189 6.1 7.0 0.00 0.00 0.00 80 1011.0
20260505053447 60 205 3.5 5.2 0.00 0.00 0.00 80 1011.1
20260505052944 60 194 7.8 8.7 0.00 0.00 0.00 80 1010.8
20260505052441 60 172 5.2 6.1 0.00 0.00 0.00 79 1011.1
20260505051938 60 251 3.5 6.1 0.00 0.00 0.00 79 1010.8
20260505051435 61 206 4.3 5.2 0.00 0.00 0.00 78 1010.8
20260505050933 61 273 2.6 2.6 0.00 0.00 0.00 77 1010.6
20260505050431 62 207 2.6 4.3 0.00 0.00 0.00 76 1010.8
20260505041359 64 274 0.9 1.7 0.00 0.00 0.00 73 1010.2
20260505040856 64 234 2.6 2.6 0.00 0.00 0.00 73 1010.0
20260505040353 64 221 1.7 2.6 0.00 0.00 0.00 72 1010.0
20260505035850 65 248 0.9 2.6 0.00 0.00 0.00 71 1009.9
20260505035345 65 200 0.9 1.7 0.00 0.00 0.00 71 1009.9
20260505034843 66 264 0.9 1.7 0.00 0.00 0.00 70 1009.8
20260505034340 66 228 2.6 2.6 0.00 0.00 0.00 69 1009.5
20260505033837 66 232 4.3 5.2 0.00 0.00 0.00 69 1009.6
20260505033334 67 274 4.3 6.1 0.00 0.00 0.00 68 1009.3
20260505032832 67 301 0.0 0.0 0.00 0.00 0.00 67 1009.4
20260505032328 68 317 0.9 0.9 0.00 0.00 0.00 66 1009.5
20260505031825 68 236 2.6 4.3 0.00 0.00 0.00 66 1009.5
20260505031321 69 254 1.7 1.7 0.00 0.00 0.00 64 1009.3
20260505030819 69 260 4.3 5.2 0.00 0.00 0.00 63 1009.2
20260505030315 70 269 2.6 2.6 0.00 0.00 0.00 61 1009.2
20260505025810 71 252 4.3 5.2 0.00 0.00 0.00 59 1009.2
20260505025308 71 266 0.0 0.9 0.00 0.00 0.00 58 1009.0
20260505024807 72 299 1.7 2.6 0.00 0.00 0.00 58 1009.2
20260505024304 72 294 2.6 2.6 0.00 0.00 0.00 57 1009.0
20260505023801 73 292 2.6 4.3 0.00 0.00 0.00 56 1009.0
20260505023258 73 280 1.7 2.6 0.00 0.00 0.00 55 1008.9
20260505022755 74 287 4.3 6.1 0.00 0.00 0.00 55 1009.0
20260505022252 75 291 6.1 7.8 0.00 0.00 0.00 55 1008.9
20260505021749 75 306 1.7 1.7 0.00 0.00 0.00 54 1009.0
20260505021246 76 295 1.7 2.6 0.00 0.00 0.00 53 1009.0
20260505020741 77 279 3.5 6.1 0.00 0.00 0.00 52 1008.9
20260505020237 77 255 1.7 2.6 0.00 0.00 0.00 51 1008.8
20260505015734 78 254 0.9 1.7 0.00 0.00 0.00 50 1008.7
20260505015231 77 256 1.7 2.6 0.00 0.00 0.00 51 1008.8
20260505014728 77 173 2.6 2.6 0.00 0.00 0.00 51 1008.8
20260505014226 77 255 1.7 2.6 0.00 0.00 0.00 50 1009.0
20260505013722 78 273 1.7 1.7 0.00 0.00 0.00 49 1009.0
20260505013219 79 267 0.0 0.9 0.00 0.00 0.00 48 1008.9
20260505012718 78 290 1.7 1.7 0.00 0.00 0.00 49 1009.1
20260505012215 78 278 0.0 0.9 0.00 0.00 0.00 49 1009.1
20260505011710 78 286 1.7 1.7 0.00 0.00 0.00 49 1008.9
20260505011208 78 276 0.0 0.9 0.00 0.00 0.00 48 1009.0
20260505010703 79 293 0.0 0.9 0.00 0.00 0.00 48 1009.0
20260505010200 79 217 3.5 4.3 0.00 0.00 0.00 47 1009.0
20260505005656 80 195 2.6 4.3 0.00 0.00 0.00 44 1008.9
20260505005153 79 269 0.9 0.9 0.00 0.00 0.00 45 1008.8
20260505004650 79 165 2.6 4.3 0.00 0.00 0.00 44 1009.1
20260505004146 80 193 3.5 4.3 0.00 0.00 0.00 44 1009.1
20260505003644 79 281 2.6 2.6 0.00 0.00 0.00 43 1009.0
20260505003142 80 252 5.2 6.1 0.00 0.00 0.00 42 1008.9
20260505002638 79 243 2.6 2.6 0.00 0.00 0.00 44 1009.1
20260505002136 80 251 3.5 5.2 0.00 0.00 0.00 43 1009.2
20260505001632 80 293 0.9 0.9 0.00 0.00 0.00 43 1009.0
20260505001130 80 306 1.7 1.7 0.00 0.00 0.00 43 1009.2
20260505000627 80 249 5.2 7.0 0.00 0.00 0.00 43 1009.3
20260505000125 80 225 3.5 4.3 0.00 0.00 0.00 42 1009.0
20260504235621 79 258 3.5 5.2 0.00 0.00 0.00 43 1009.2